Вернуться в каталог

STARLINK-31500

АктивенСвязьVLEO
NORAD 59305·PAYLOAD·🇺🇸 United States

Запущен Mar 24, 2024 с Cape Canaveral Space Force Station

Loading…

Ближайшие Пролёты (ближайшие 24 часа)

TLE

СвежийSource: CelesTrak SupGP

Эпоха: Sep 15, 2026, 03:24 UTC

1 59305C 24056K   26258.14215278 -.00106310  00000+0 -38604-2 0  2585
2 59305  42.9993 240.8437 0001260 281.4927 231.7095 15.27548955    19

Отслеживайте STARLINK-31500 в реальном времени с AllMySat

Download on the App Store